Time,TemperatureF,DewpointF,PressureIn,WindDirection,WindDirectionDegrees,WindSpeedMPH,WindSpeedGustMPH,Humidity,HourlyPrecipIn,Conditions,Clouds,dailyrainin,SoftwareType,DateUTC
2013-02-09 00:00:00,30.2,1.0,29.84,West,260,3.1,3.1,28,0.00,,CLR,0.00,VWS V14.01,2013-02-09 05:00:00,
2013-02-09 00:05:00,30.2,-1.4,29.84,North,357,0.0,0.0,25,0.00,,CLR,0.00,VWS V14.01,2013-02-09 05:05:00,
2013-02-09 00:10:00,30.2,-1.4,29.84,NNE,14,0.0,0.0,25,0.00,,CLR,0.00,VWS V14.01,2013-02-09 05:10:00,
2013-02-09 00:15:00,30.2,-1.4,29.84,NNE,12,0.0,0.0,25,0.00,,CLR,0.00,VWS V14.01,2013-02-09 05:15:00,
2013-02-09 00:20:00,30.2,-1.4,29.84,NNE,12,0.0,0.0,25,0.00,,CLR,0.00,VWS V14.01,2013-02-09 05:20:00,
2013-02-09 00:25:00,30.2,-1.4,29.84,NNE,12,0.0,0.0,25,0.00,,CLR,0.00,VWS V14.01,2013-02-09 05:25:00,
2013-02-09 00:30:00,29.8,-1.7,29.84,NNE,12,0.0,0.0,25,0.00,,CLR,0.00,VWS V14.01,2013-02-09 05:30:00,
2013-02-09 00:35:00,29.5,-2.0,29.84,NNE,12,0.0,0.0,25,0.00,,CLR,0.00,VWS V14.01,2013-02-09 05:35:00,
2013-02-09 00:41:00,29.3,-2.2,29.84,NNE,12,0.0,0.0,25,0.00,,CLR,0.00,VWS V14.01,2013-02-09 05:41:00,
2013-02-09 00:46:00,28.6,-2.8,29.84,NNE,12,0.0,0.0,25,0.00,,CLR,0.00,VWS V14.01,2013-02-09 05:46:00,
2013-02-09 00:51:00,28.6,-2.8,29.84,NNE,12,0.0,0.0,25,0.00,,CLR,0.00,VWS V14.01,2013-02-09 05:51:00,
2013-02-09 00:56:00,28.2,-2.2,29.84,NNW,328,0.0,0.0,26,0.00,,CLR,0.00,VWS V14.01,2013-02-09 05:56:00,
2013-02-09 01:01:00,27.5,0.8,29.84,NNW,332,0.0,0.0,31,0.00,,CLR,0.00,VWS V14.01,2013-02-09 06:01:00,
2013-02-09 01:06:00,27.7,1.0,29.84,NNW,332,0.0,0.0,31,0.00,,CLR,0.00,VWS V14.01,2013-02-09 06:06:00,
2013-02-09 01:11:00,27.9,1.2,29.84,NNE,27,0.0,0.0,31,0.00,,CLR,0.00,VWS V14.01,2013-02-09 06:11:00,
2013-02-09 01:16:00,27.9,1.2,29.84,NE,38,0.0,0.0,31,0.00,,CLR,0.00,VWS V14.01,2013-02-09 06:16:00,
2013-02-09 01:21:00,27.9,1.2,29.84,NNE,31,0.0,0.0,31,0.00,,CLR,0.00,VWS V14.01,2013-02-09 06:21:00,
2013-02-09 01:26:00,30.6,-1.1,29.84,NNE,20,0.0,0.0,25,0.00,,CLR,0.00,VWS V14.01,2013-02-09 06:26:00,
2013-02-09 01:32:00,30.6,-2.8,29.84,North,353,2.7,3.1,23,0.00,,CLR,0.00,VWS V14.01,2013-02-09 06:32:00,
2013-02-09 01:37:00,30.7,-2.7,29.84,NNE,24,4.0,4.0,23,0.00,,CLR,0.00,VWS V14.01,2013-02-09 06:37:00,
2013-02-09 01:42:00,31.1,-2.4,29.84,NE,40,3.1,4.0,23,0.00,,CLR,0.00,VWS V14.01,2013-02-09 06:42:00,
2013-02-09 01:47:00,31.5,-2.0,29.84,ENE,76,4.0,4.0,23,0.00,,CLR,0.00,VWS V14.01,2013-02-09 06:47:00,
2013-02-09 01:52:00,31.1,-2.4,29.84,North,3,0.0,3.1,23,0.00,,CLR,0.00,VWS V14.01,2013-02-09 06:52:00,
2013-02-09 01:57:00,30.7,-2.7,29.84,NE,56,2.7,2.7,23,0.00,,CLR,0.00,VWS V14.01,2013-02-09 06:57:00,
2013-02-09 02:02:00,30.6,-2.8,29.84,North,5,2.7,2.7,23,0.00,,CLR,0.00,VWS V14.01,2013-02-09 07:02:00,
2013-02-09 02:07:00,30.6,-2.8,29.84,North,0,0.0,0.0,23,0.00,,CLR,0.00,VWS V14.01,2013-02-09 07:07:00,
2013-02-09 02:12:00,30.2,-3.1,29.84,NE,36,0.0,0.0,23,0.00,,CLR,0.00,VWS V14.01,2013-02-09 07:12:00,
2013-02-09 02:17:00,30.2,-3.1,29.87,ENE,62,0.0,0.0,23,0.00,,CLR,0.00,VWS V14.01,2013-02-09 07:17:00,
2013-02-09 02:23:00,30.6,-2.8,29.87,NNE,25,0.0,0.0,23,0.00,,CLR,0.00,VWS V14.01,2013-02-09 07:23:00,
2013-02-09 02:28:00,30.7,-2.7,29.87,ENE,59,3.1,3.1,23,0.00,,CLR,0.00,VWS V14.01,2013-02-09 07:28:00,
2013-02-09 02:33:00,31.8,-1.8,29.87,NNE,32,3.6,3.6,23,0.00,,CLR,0.00,VWS V14.01,2013-02-09 07:33:00,
2013-02-09 02:38:00,32.0,-1.6,29.87,NNE,18,2.2,3.1,23,0.00,,CLR,0.00,VWS V14.01,2013-02-09 07:38:00,
2013-02-09 02:43:00,32.0,-1.6,29.87,NE,46,3.1,3.1,23,0.00,,CLR,0.00,VWS V14.01,2013-02-09 07:43:00,
2013-02-09 02:48:00,32.0,-1.6,29.87,ENE,57,4.0,4.0,23,0.00,,CLR,0.00,VWS V14.01,2013-02-09 07:48:00,
2013-02-09 02:53:00,32.2,-1.4,29.87,NNE,29,0.0,0.0,23,0.00,,CLR,0.00,VWS V14.01,2013-02-09 07:53:00,
2013-02-09 02:58:00,31.8,-1.8,29.87,NE,53,0.0,0.0,23,0.00,,CLR,0.00,VWS V14.01,2013-02-09 07:58:00,
2013-02-09 03:03:00,31.8,-1.8,29.87,NE,55,4.0,4.0,23,0.00,,CLR,0.00,VWS V14.01,2013-02-09 08:03:00,
2013-02-09 03:08:00,31.5,-2.0,29.87,NE,35,0.0,0.0,23,0.00,,CLR,0.00,VWS V14.01,2013-02-09 08:08:00,
2013-02-09 03:13:00,31.5,-2.0,29.87,NNE,27,2.2,4.0,23,0.00,,CLR,0.00,VWS V14.01,2013-02-09 08:13:00,
2013-02-09 03:18:00,32.0,-1.6,29.87,NE,44,2.7,2.7,23,0.00,,CLR,0.00,VWS V14.01,2013-02-09 08:18:00,
2013-02-09 03:24:00,32.0,-1.6,29.87,NE,52,4.0,4.0,23,0.00,,CLR,0.00,VWS V14.01,2013-02-09 08:24:00,
2013-02-09 03:29:00,32.2,-1.4,29.87,North,0,3.6,4.0,23,0.00,,CLR,0.00,VWS V14.01,2013-02-09 08:29:00,
2013-02-09 03:34:00,32.4,-1.3,29.87,NNE,22,2.7,2.7,23,0.00,,CLR,0.00,VWS V14.01,2013-02-09 08:34:00,
2013-02-09 03:39:00,32.2,-1.4,29.87,East,82,2.7,2.7,23,0.00,,CLR,0.00,VWS V14.01,2013-02-09 08:39:00,
2013-02-09 03:44:00,32.0,-1.6,29.87,North,357,2.7,2.7,23,0.00,,CLR,0.00,VWS V14.01,2013-02-09 08:44:00,
2013-02-09 03:49:00,31.6,-1.9,29.87,North,4,2.7,2.7,23,0.00,,CLR,0.00,VWS V14.01,2013-02-09 08:49:00,
2013-02-09 03:54:00,31.6,-1.9,29.87,NNW,339,3.1,3.6,23,0.00,,CLR,0.00,VWS V14.01,2013-02-09 08:54:00,
2013-02-09 03:59:00,31.3,-2.2,29.87,NNE,27,0.0,0.0,23,0.00,,CLR,0.00,VWS V14.01,2013-02-09 08:59:00,
2013-02-09 04:05:00,30.9,-2.5,29.87,NNE,33,3.1,3.1,23,0.00,,CLR,0.00,VWS V14.01,2013-02-09 09:05:00,
2013-02-09 04:10:00,31.1,-2.4,29.87,NW,326,0.0,3.6,23,0.00,,CLR,0.00,VWS V14.01,2013-02-09 09:10:00,
2013-02-09 04:15:00,30.9,-2.5,29.87,NE,44,2.2,2.2,23,0.00,,CLR,0.00,VWS V14.01,2013-02-09 09:15:00,
2013-02-09 04:20:00,30.9,-2.5,29.87,NE,38,2.2,2.2,23,0.00,,CLR,0.00,VWS V14.01,2013-02-09 09:20:00,
2013-02-09 04:25:00,30.7,-2.7,29.87,NNE,17,3.6,3.6,23,0.00,,CLR,0.00,VWS V14.01,2013-02-09 09:25:00,
2013-02-09 04:30:00,30.6,-2.8,29.87,North,2,2.7,2.7,23,0.00,,CLR,0.00,VWS V14.01,2013-02-09 09:30:00,
2013-02-09 04:35:00,30.7,-2.7,29.87,NE,35,2.7,2.7,23,0.00,,CLR,0.00,VWS V14.01,2013-02-09 09:35:00,
2013-02-09 04:40:00,30.6,-2.8,29.87,NNE,23,3.6,3.6,23,0.00,,CLR,0.00,VWS V14.01,2013-02-09 09:40:00,
2013-02-09 04:45:00,30.2,-3.1,29.87,North,353,4.0,4.0,23,0.00,,CLR,0.00,VWS V14.01,2013-02-09 09:45:00,
2013-02-09 04:50:00,30.2,-3.1,29.87,NNE,19,2.7,2.7,23,0.00,,CLR,0.00,VWS V14.01,2013-02-09 09:50:00,
2013-02-09 04:55:00,30.2,-3.1,29.87,NE,34,2.2,2.2,23,0.00,,CLR,0.00,VWS V14.01,2013-02-09 09:55:00,
2013-02-09 05:00:00,30.0,-3.3,29.87,NNE,20,2.7,2.7,23,0.00,,CLR,0.00,VWS V14.01,2013-02-09 10:00:00,
2013-02-09 05:06:00,30.0,-3.3,29.87,NNW,339,2.7,2.7,23,0.00,,CLR,0.00,VWS V14.01,2013-02-09 10:06:00,
2013-02-09 05:11:00,30.0,-3.3,29.87,NNE,18,2.2,2.7,23,0.00,,CLR,0.00,VWS V14.01,2013-02-09 10:11:00,
2013-02-09 05:16:00,30.0,-3.3,29.90,North,1,3.1,3.1,23,0.00,,CLR,0.00,VWS V14.01,2013-02-09 10:16:00,
2013-02-09 05:21:00,29.8,-3.4,29.90,NE,42,0.0,0.0,23,0.00,,CLR,0.00,VWS V14.01,2013-02-09 10:21:00,
2013-02-09 05:26:00,29.3,-3.9,29.90,NE,42,0.0,0.0,23,0.00,,CLR,0.00,VWS V14.01,2013-02-09 10:26:00,
2013-02-09 05:31:00,29.3,-3.9,29.90,SW,230,0.0,0.0,23,0.00,,CLR,0.00,VWS V14.01,2013-02-09 10:31:00,
2013-02-09 05:36:00,29.3,-3.9,29.90,SW,230,0.0,0.0,23,0.00,,CLR,0.00,VWS V14.01,2013-02-09 10:36:00,
2013-02-09 05:41:00,27.7,-5.3,29.90,SW,230,0.0,0.0,23,0.00,,CLR,0.00,VWS V14.01,2013-02-09 10:41:00,
2013-02-09 05:46:00,27.7,-5.3,29.90,East,95,0.0,0.0,23,0.00,,CLR,0.00,VWS V14.01,2013-02-09 10:46:00,
2013-02-09 05:51:00,28.2,-4.8,29.90,NE,44,2.7,2.7,23,0.00,,CLR,0.00,VWS V14.01,2013-02-09 10:51:00,
2013-02-09 05:57:00,28.2,-4.8,29.90,NE,44,0.0,0.0,23,0.00,,CLR,0.00,VWS V14.01,2013-02-09 10:57:00,
2013-02-09 06:02:00,27.5,-5.4,29.90,ESE,110,0.0,0.0,23,0.00,,CLR,0.00,VWS V14.01,2013-02-09 11:02:00,
2013-02-09 06:07:00,27.5,-5.4,29.90,ESE,109,0.0,0.0,23,0.00,,CLR,0.00,VWS V14.01,2013-02-09 11:07:00,
2013-02-09 06:12:00,27.5,-5.4,29.90,ESE,109,0.0,0.0,23,0.00,,CLR,0.00,VWS V14.01,2013-02-09 11:12:00,
2013-02-09 06:17:00,27.0,-5.9,29.93,North,350,0.0,0.0,23,0.00,,CLR,0.00,VWS V14.01,2013-02-09 11:17:00,
2013-02-09 06:22:00,26.8,-6.0,29.93,ESE,122,0.0,0.0,23,0.00,,CLR,0.00,VWS V14.01,2013-02-09 11:22:00,
2013-02-09 06:27:00,26.6,-5.3,29.93,NE,56,2.2,2.2,24,0.00,,CLR,0.00,VWS V14.01,2013-02-09 11:27:00,
2013-02-09 06:32:00,27.1,-5.7,29.93,East,95,0.0,0.0,23,0.00,,CLR,0.00,VWS V14.01,2013-02-09 11:32:00,
2013-02-09 06:37:00,27.3,-5.6,29.93,East,83,0.0,0.0,23,0.00,,CLR,0.00,VWS V14.01,2013-02-09 11:37:00,
2013-02-09 06:44:00,27.7,-5.3,29.93,East,83,0.0,0.0,23,0.00,,CLR,0.00,VWS V14.01,2013-02-09 11:44:00,
2013-02-09 06:49:00,27.7,-5.3,29.93,SE,133,0.0,0.0,23,0.00,,CLR,0.00,VWS V14.01,2013-02-09 11:49:00,
2013-02-09 06:54:00,27.9,-5.1,29.93,ESE,111,0.0,0.0,23,0.00,,CLR,0.00,VWS V14.01,2013-02-09 11:54:00,
2013-02-09 06:59:00,28.2,-4.8,29.93,East,83,0.0,0.0,23,0.00,,CLR,0.00,VWS V14.01,2013-02-09 11:59:00,
2013-02-09 07:04:00,28.4,-4.7,29.93,East,83,2.2,2.2,23,0.00,,CLR,0.00,VWS V14.01,2013-02-09 12:04:00,
2013-02-09 07:09:00,29.1,-4.1,29.93,East,83,2.2,2.2,23,0.00,,CLR,0.00,VWS V14.01,2013-02-09 12:09:00,
2013-02-09 07:15:00,29.5,-3.7,29.93,ENE,61,3.1,3.1,23,0.00,,CLR,0.00,VWS V14.01,2013-02-09 12:15:00,
2013-02-09 07:20:00,29.5,-3.7,29.93,ENE,61,4.0,4.0,23,0.00,,CLR,0.00,VWS V14.01,2013-02-09 12:20:00,
2013-02-09 07:25:00,29.7,-3.6,29.93,NE,46,2.7,3.1,23,0.00,,CLR,0.00,VWS V14.01,2013-02-09 12:25:00,
2013-02-09 07:30:00,29.7,-3.6,29.96,NE,46,2.7,2.7,23,0.00,,CLR,0.00,VWS V14.01,2013-02-09 12:30:00,
2013-02-09 07:35:00,29.8,-3.4,29.96,NE,46,3.6,3.6,23,0.00,,CLR,0.00,VWS V14.01,2013-02-09 12:35:00,
2013-02-09 07:40:00,30.0,-3.3,29.96,NNE,21,3.1,4.0,23,0.00,,CLR,0.00,VWS V14.01,2013-02-09 12:40:00,
2013-02-09 07:45:00,30.0,-3.3,29.96,North,0,0.0,0.0,23,0.00,,CLR,0.00,VWS V14.01,2013-02-09 12:45:00,
2013-02-09 07:50:00,30.2,-3.1,29.96,North,0,2.7,2.7,23,0.00,,CLR,0.00,VWS V14.01,2013-02-09 12:50:00,
2013-02-09 07:55:00,30.2,-3.1,29.96,NNW,335,3.6,3.6,23,0.00,,CLR,0.00,VWS V14.01,2013-02-09 12:55:00,
2013-02-09 08:00:00,30.2,-3.1,29.96,NE,39,0.0,0.0,23,0.00,,CLR,0.00,VWS V14.01,2013-02-09 13:00:00,
2013-02-09 08:05:00,31.5,-2.0,29.96,NNE,23,0.0,0.0,23,0.00,,CLR,0.00,VWS V14.01,2013-02-09 13:05:00,
2013-02-09 08:10:00,31.5,-2.0,29.96,NE,46,0.0,0.0,23,0.00,,CLR,0.00,VWS V14.01,2013-02-09 13:10:00,
2013-02-09 08:15:00,32.9,-0.8,29.96,ENE,58,3.6,3.6,23,0.00,,CLR,0.00,VWS V14.01,2013-02-09 13:15:00,
2013-02-09 08:20:00,33.3,-0.5,29.96,NE,47,3.1,4.0,23,0.00,,CLR,0.00,VWS V14.01,2013-02-09 13:20:00,
2013-02-09 08:25:00,33.3,-0.5,29.96,NE,47,3.6,3.6,23,0.00,,CLR,0.00,VWS V14.01,2013-02-09 13:25:00,
2013-02-09 08:30:00,34.0,-0.9,29.96,NNW,346,2.7,3.1,22,0.00,,CLR,0.00,VWS V14.01,2013-02-09 13:30:00,
2013-02-09 08:35:00,35.6,0.5,29.96,North,8,2.7,2.7,22,0.00,,CLR,0.00,VWS V14.01,2013-02-09 13:35:00,
2013-02-09 08:40:00,36.5,1.3,29.96,NNE,24,2.7,2.7,22,0.00,,CLR,0.00,VWS V14.01,2013-02-09 13:40:00,
2013-02-09 08:46:00,36.7,1.4,29.96,NNE,30,3.1,3.1,22,0.00,,CLR,0.00,VWS V14.01,2013-02-09 13:46:00,
2013-02-09 08:51:00,37.4,1.0,29.99,NNE,23,0.0,0.0,21,0.00,,CLR,0.00,VWS V14.01,2013-02-09 13:51:00,
2013-02-09 08:56:00,37.9,1.5,29.99,NNW,346,0.0,0.0,21,0.00,,CLR,0.00,VWS V14.01,2013-02-09 13:56:00,
2013-02-09 09:01:00,39.0,2.4,29.99,NNW,343,0.0,0.0,21,0.00,,CLR,0.00,VWS V14.01,2013-02-09 14:01:00,
2013-02-09 09:06:00,39.2,2.6,29.99,NNW,343,0.0,0.0,21,0.00,,CLR,0.00,VWS V14.01,2013-02-09 14:06:00,
2013-02-09 09:11:00,39.7,3.0,29.99,West,275,0.0,0.0,21,0.00,,CLR,0.00,VWS V14.01,2013-02-09 14:11:00,
2013-02-09 09:16:00,40.5,3.6,29.99,NNW,328,0.0,0.0,21,0.00,,CLR,0.00,VWS V14.01,2013-02-09 14:16:00,
2013-02-09 09:21:00,40.5,3.6,29.99,NW,307,0.0,0.0,21,0.00,,CLR,0.00,VWS V14.01,2013-02-09 14:21:00,
2013-02-09 09:26:00,40.5,3.6,29.99,NW,309,0.0,0.0,21,0.00,,CLR,0.00,VWS V14.01,2013-02-09 14:26:00,
2013-02-09 09:31:00,40.5,3.6,29.99,WNW,297,3.1,3.1,21,0.00,,CLR,0.00,VWS V14.01,2013-02-09 14:31:00,
2013-02-09 09:36:00,41.0,4.1,29.99,WNW,296,3.6,3.6,21,0.00,,CLR,0.00,VWS V14.01,2013-02-09 14:36:00,
2013-02-09 09:41:00,41.7,4.7,29.99,WNW,285,2.2,2.2,21,0.00,,CLR,0.00,VWS V14.01,2013-02-09 14:41:00,
2013-02-09 09:46:00,42.6,5.4,29.99,WNW,289,4.0,4.0,21,0.00,,CLR,0.00,VWS V14.01,2013-02-09 14:46:00,
2013-02-09 09:51:00,43.3,5.0,29.99,WNW,289,4.0,4.0,20,0.00,,CLR,0.00,VWS V14.01,2013-02-09 14:51:00,
2013-02-09 09:57:00,44.8,6.2,29.99,West,267,0.0,0.0,20,0.00,,CLR,0.00,VWS V14.01,2013-02-09 14:57:00,
2013-02-09 10:02:00,46.0,7.2,29.99,SW,218,2.2,2.2,20,0.00,,CLR,0.00,VWS V14.01,2013-02-09 15:02:00,
2013-02-09 10:07:00,46.4,6.4,29.99,WNW,299,0.0,0.0,19,0.00,,CLR,0.00,VWS V14.01,2013-02-09 15:07:00,
2013-02-09 10:12:00,47.8,7.6,29.99,WNW,299,0.0,0.0,19,0.00,,CLR,0.00,VWS V14.01,2013-02-09 15:12:00,
2013-02-09 10:17:00,48.2,7.9,29.99,ESE,121,0.0,0.0,19,0.00,,CLR,0.00,VWS V14.01,2013-02-09 15:17:00,
2013-02-09 10:22:00,50.4,9.7,29.99,WSW,254,0.0,0.0,19,0.00,,CLR,0.00,VWS V14.01,2013-02-09 15:22:00,
2013-02-09 10:27:00,51.8,9.7,29.99,WSW,252,0.0,0.0,18,0.00,,CLR,0.00,VWS V14.01,2013-02-09 15:27:00,
2013-02-09 10:32:00,54.3,11.7,30.02,SSW,198,0.0,0.0,18,0.00,,CLR,0.00,VWS V14.01,2013-02-09 15:32:00,
2013-02-09 10:38:00,55.4,11.3,30.02,South,188,0.0,0.0,17,0.00,,CLR,0.00,VWS V14.01,2013-02-09 15:38:00,
2013-02-09 10:43:00,55.9,11.8,30.02,SE,128,0.0,0.0,17,0.00,,CLR,0.00,VWS V14.01,2013-02-09 15:43:00,
2013-02-09 10:48:00,56.3,12.1,30.02,SE,135,0.0,0.0,17,0.00,,CLR,0.00,VWS V14.01,2013-02-09 15:48:00,
2013-02-09 10:53:00,57.2,12.8,30.02,SE,128,2.7,2.7,17,0.00,,CLR,0.00,VWS V14.01,2013-02-09 15:53:00,
2013-02-09 10:58:00,57.2,12.8,30.02,SW,230,2.2,2.7,17,0.00,,CLR,0.00,VWS V14.01,2013-02-09 15:58:00,
2013-02-09 11:03:00,58.5,13.8,30.02,SSE,159,3.1,3.1,17,0.00,,CLR,0.00,VWS V14.01,2013-02-09 16:03:00,
2013-02-09 11:08:00,58.5,13.8,30.02,East,97,2.7,2.7,17,0.00,,CLR,0.00,VWS V14.01,2013-02-09 16:08:00,
2013-02-09 11:13:00,58.8,14.1,30.02,SW,219,3.1,3.1,17,0.00,,CLR,0.00,VWS V14.01,2013-02-09 16:13:00,
2013-02-09 11:18:00,59.4,14.6,30.02,SE,137,0.0,0.0,17,0.00,,CLR,0.00,VWS V14.01,2013-02-09 16:18:00,
2013-02-09 11:23:00,59.4,14.6,30.02,South,182,0.0,0.0,17,0.00,,CLR,0.00,VWS V14.01,2013-02-09 16:23:00,
2013-02-09 11:28:00,60.1,15.1,30.02,SSE,151,3.6,3.6,17,0.00,,CLR,0.00,VWS V14.01,2013-02-09 16:28:00,
2013-02-09 11:33:00,60.4,15.4,30.02,ESE,111,2.7,4.0,17,0.00,,CLR,0.00,VWS V14.01,2013-02-09 16:33:00,
2013-02-09 11:39:00,60.6,18.2,30.02,SE,126,2.7,2.7,19,0.00,,CLR,0.00,VWS V14.01,2013-02-09 16:39:00,
2013-02-09 11:44:00,61.7,19.0,30.02,ESE,120,3.1,3.1,19,0.00,,CLR,0.00,VWS V14.01,2013-02-09 16:44:00,
2013-02-09 11:49:00,62.4,19.6,30.02,South,177,4.0,4.0,19,0.00,,CLR,0.00,VWS V14.01,2013-02-09 16:49:00,
2013-02-09 11:54:00,62.8,18.7,30.02,SSE,149,2.7,4.9,18,0.00,,CLR,0.00,VWS V14.01,2013-02-09 16:54:00,
2013-02-09 11:59:00,63.0,18.8,30.02,South,189,3.6,3.6,18,0.00,,CLR,0.00,VWS V14.01,2013-02-09 16:59:00,
2013-02-09 12:04:00,63.0,18.8,30.02,SE,140,2.7,4.0,18,0.00,,CLR,0.00,VWS V14.01,2013-02-09 17:04:00,
2013-02-09 12:09:00,63.0,18.8,30.02,ESE,120,3.1,3.1,18,0.00,,CLR,0.00,VWS V14.01,2013-02-09 17:09:00,
2013-02-09 12:14:00,63.5,19.3,30.02,SSE,150,0.0,2.7,18,0.00,,CLR,0.00,VWS V14.01,2013-02-09 17:14:00,
2013-02-09 12:20:00,64.4,20.0,30.02,SW,220,2.7,2.7,18,0.00,,CLR,0.00,VWS V14.01,2013-02-09 17:20:00,
2013-02-09 12:25:00,64.8,20.3,30.02,NNE,17,2.2,4.0,18,0.00,,CLR,0.00,VWS V14.01,2013-02-09 17:25:00,
2013-02-09 12:30:00,65.1,20.6,30.02,West,264,3.6,3.6,18,0.00,,CLR,0.00,VWS V14.01,2013-02-09 17:30:00,
2013-02-09 12:35:00,65.1,20.6,30.02,South,176,3.1,3.6,18,0.00,,CLR,0.00,VWS V14.01,2013-02-09 17:35:00,
2013-02-09 12:40:00,65.3,20.7,30.02,SW,224,2.7,2.7,18,0.00,,CLR,0.00,VWS V14.01,2013-02-09 17:40:00,
2013-02-09 12:45:00,66.7,20.6,30.02,WSW,257,2.2,3.1,17,0.00,,CLR,0.00,VWS V14.01,2013-02-09 17:45:00,
2013-02-09 12:50:00,66.9,20.7,30.02,South,175,3.6,3.6,17,0.00,,CLR,0.00,VWS V14.01,2013-02-09 17:50:00,
2013-02-09 12:55:00,67.1,20.9,30.02,WSW,248,3.1,3.1,17,0.00,,CLR,0.00,VWS V14.01,2013-02-09 17:55:00,
2013-02-09 13:01:00,67.5,21.2,30.02,SSE,161,2.2,4.9,17,0.00,,CLR,0.00,VWS V14.01,2013-02-09 18:01:00,
2013-02-09 13:06:00,67.3,21.0,30.02,SSW,192,5.8,5.8,17,0.00,,CLR,0.00,VWS V14.01,2013-02-09 18:06:00,
2013-02-09 13:11:00,67.6,21.3,30.02,South,190,3.1,4.9,17,0.00,,CLR,0.00,VWS V14.01,2013-02-09 18:11:00,
2013-02-09 13:16:00,68.2,21.7,30.02,SSE,158,0.0,5.4,17,0.00,,CLR,0.00,VWS V14.01,2013-02-09 18:16:00,
2013-02-09 13:21:00,68.2,21.7,30.02,South,179,2.2,2.7,17,0.00,,CLR,0.00,VWS V14.01,2013-02-09 18:21:00,
2013-02-09 13:26:00,68.9,22.3,30.02,SE,145,2.7,3.1,17,0.00,,CLR,0.00,VWS V14.01,2013-02-09 18:26:00,
2013-02-09 13:31:00,69.3,22.6,30.02,SSE,163,3.6,3.6,17,0.00,,CLR,0.00,VWS V14.01,2013-02-09 18:31:00,
2013-02-09 13:36:00,69.8,23.1,30.02,SSW,196,3.1,3.6,17,0.00,,CLR,0.00,VWS V14.01,2013-02-09 18:36:00,
2013-02-09 13:41:00,70.0,23.2,30.02,WSW,256,4.0,4.0,17,0.00,,CLR,0.00,VWS V14.01,2013-02-09 18:41:00,
2013-02-09 13:46:00,70.5,23.6,30.02,WNW,285,2.7,2.7,17,0.00,,CLR,0.00,VWS V14.01,2013-02-09 18:46:00,
2013-02-09 13:51:00,70.3,23.5,30.02,ESE,105,4.0,4.0,17,0.00,,CLR,0.00,VWS V14.01,2013-02-09 18:51:00,
2013-02-09 13:57:00,70.3,23.5,30.02,South,179,3.1,3.6,17,0.00,,CLR,0.00,VWS V14.01,2013-02-09 18:57:00,
2013-02-09 14:02:00,69.3,22.6,29.99,SW,214,5.4,5.4,17,0.00,,CLR,0.00,VWS V14.01,2013-02-09 19:02:00,
2013-02-09 14:07:00,68.7,22.2,29.99,SE,139,2.7,3.6,17,0.00,,CLR,0.00,VWS V14.01,2013-02-09 19:07:00,
2013-02-09 14:12:00,68.0,21.6,29.99,East,97,3.6,3.6,17,0.00,,CLR,0.00,VWS V14.01,2013-02-09 19:12:00,
2013-02-09 14:17:00,67.8,21.5,29.99,South,179,3.6,3.6,17,0.00,,CLR,0.00,VWS V14.01,2013-02-09 19:17:00,
2013-02-09 14:22:00,68.2,21.7,29.99,SSE,166,3.6,3.6,17,0.00,,CLR,0.00,VWS V14.01,2013-02-09 19:22:00,
2013-02-09 14:27:00,68.9,22.3,29.99,WNW,298,0.0,3.1,17,0.00,,CLR,0.00,VWS V14.01,2013-02-09 19:27:00,
2013-02-09 14:32:00,68.7,22.2,29.99,ESE,119,2.7,4.0,17,0.00,,CLR,0.00,VWS V14.01,2013-02-09 19:32:00,
2013-02-09 14:37:00,68.7,22.2,29.99,SSW,207,2.7,2.7,17,0.00,,CLR,0.00,VWS V14.01,2013-02-09 19:37:00,
2013-02-09 14:42:00,68.9,22.3,29.99,South,191,3.6,3.6,17,0.00,,CLR,0.00,VWS V14.01,2013-02-09 19:42:00,
2013-02-09 14:48:00,68.9,22.3,29.99,South,172,5.4,5.4,17,0.00,,CLR,0.00,VWS V14.01,2013-02-09 19:48:00,
2013-02-09 14:53:00,69.4,22.8,29.99,ESE,117,2.7,4.0,17,0.00,,CLR,0.00,VWS V14.01,2013-02-09 19:53:00,
2013-02-09 14:58:00,69.6,22.9,29.99,SSE,159,3.6,4.0,17,0.00,,CLR,0.00,VWS V14.01,2013-02-09 19:58:00,
2013-02-09 15:03:00,69.6,22.9,29.99,SSE,154,3.1,3.1,17,0.00,,CLR,0.00,VWS V14.01,2013-02-09 20:03:00,
2013-02-09 15:08:00,69.8,23.1,29.99,SE,131,4.9,4.9,17,0.00,,CLR,0.00,VWS V14.01,2013-02-09 20:08:00,
2013-02-09 15:13:00,69.3,22.6,29.99,SSE,164,2.7,2.7,17,0.00,,CLR,0.00,VWS V14.01,2013-02-09 20:13:00,
2013-02-09 15:18:00,69.1,22.5,29.99,SSE,158,3.1,4.9,17,0.00,,CLR,0.00,VWS V14.01,2013-02-09 20:18:00,
2013-02-09 15:23:00,69.4,22.8,29.99,SSE,164,3.6,3.6,17,0.00,,CLR,0.00,VWS V14.01,2013-02-09 20:23:00,
2013-02-09 15:29:00,70.0,23.2,29.99,SSE,156,2.7,2.7,17,0.00,,CLR,0.00,VWS V14.01,2013-02-09 20:29:00,
2013-02-09 15:34:00,70.5,23.6,29.99,SSW,208,2.7,6.3,17,0.00,,CLR,0.00,VWS V14.01,2013-02-09 20:34:00,
2013-02-09 15:39:00,69.8,23.1,29.99,SSE,156,4.0,4.0,17,0.00,,CLR,0.00,VWS V14.01,2013-02-09 20:39:00,
2013-02-09 15:44:00,67.8,21.5,29.99,SSW,209,2.7,3.6,17,0.00,,CLR,0.00,VWS V14.01,2013-02-09 20:44:00,
2013-02-09 15:49:00,65.8,21.2,29.99,SE,131,2.7,2.7,18,0.00,,CLR,0.00,VWS V14.01,2013-02-09 20:49:00,
2013-02-09 15:54:00,65.8,21.2,29.99,SE,143,4.0,5.4,18,0.00,,CLR,0.00,VWS V14.01,2013-02-09 20:54:00,
2013-02-09 15:59:00,61.3,18.8,29.99,SE,144,3.6,5.4,19,0.00,,CLR,0.00,VWS V14.01,2013-02-09 20:59:00,
2013-02-09 16:05:00,61.3,18.8,29.99,SE,144,4.0,4.0,19,0.00,,CLR,0.00,VWS V14.01,2013-02-09 21:05:00,
2013-02-09 16:10:00,62.1,19.3,29.99,SSE,168,0.0,3.6,19,0.00,,CLR,0.00,VWS V14.01,2013-02-09 21:10:00,
2013-02-09 16:15:00,63.5,19.3,29.99,SSE,161,3.6,3.6,18,0.00,,CLR,0.00,VWS V14.01,2013-02-09 21:15:00,
2013-02-09 16:20:00,63.9,19.6,29.99,SSE,168,2.2,2.2,18,0.00,,CLR,0.00,VWS V14.01,2013-02-09 21:20:00,
2013-02-09 16:25:00,63.9,19.6,29.99,SW,234,0.0,0.0,18,0.00,,CLR,0.00,VWS V14.01,2013-02-09 21:25:00,
2013-02-09 16:30:00,64.0,19.7,29.99,SSE,152,0.0,0.0,18,0.00,,CLR,0.00,VWS V14.01,2013-02-09 21:30:00,
2013-02-09 16:35:00,62.6,18.5,29.99,SSW,206,3.1,3.1,18,0.00,,CLR,0.00,VWS V14.01,2013-02-09 21:35:00,
2013-02-09 16:41:00,61.9,19.2,29.99,SSE,149,3.1,3.6,19,0.00,,CLR,0.00,VWS V14.01,2013-02-09 21:41:00,
2013-02-09 16:46:00,58.8,16.7,29.99,SE,129,0.0,0.0,19,0.00,,CLR,0.00,VWS V14.01,2013-02-09 21:46:00,
2013-02-09 16:51:00,56.5,12.2,29.99,SW,216,2.7,2.7,17,0.00,,CLR,0.00,VWS V14.01,2013-02-09 21:51:00,
2013-02-09 16:56:00,55.6,11.5,29.99,SW,217,0.0,0.0,17,0.00,,CLR,0.00,VWS V14.01,2013-02-09 21:56:00,
2013-02-09 17:01:00,54.5,11.9,29.99,South,178,2.7,2.7,18,0.00,,CLR,0.00,VWS V14.01,2013-02-09 22:01:00,
2013-02-09 17:06:00,53.4,11.0,29.99,SSE,161,0.0,2.2,18,0.00,,CLR,0.00,VWS V14.01,2013-02-09 22:06:00,
2013-02-09 17:11:00,53.4,11.0,29.99,SE,133,0.0,0.0,18,0.00,,CLR,0.00,VWS V14.01,2013-02-09 22:11:00,
2013-02-09 17:17:00,54.3,11.7,29.99,SSE,157,5.4,5.4,18,0.00,,CLR,0.00,VWS V14.01,2013-02-09 22:17:00,
2013-02-09 17:22:00,54.5,11.9,29.99,SSE,149,4.0,4.0,18,0.00,,CLR,0.00,VWS V14.01,2013-02-09 22:22:00,
2013-02-09 17:27:00,53.1,10.7,29.99,South,174,2.7,2.7,18,0.00,,CLR,0.00,VWS V14.01,2013-02-09 22:27:00,
2013-02-09 17:32:00,51.6,10.7,29.99,South,174,0.0,0.0,19,0.00,,CLR,0.00,VWS V14.01,2013-02-09 22:32:00,
2013-02-09 17:37:00,50.0,9.4,29.99,SE,146,0.0,0.0,19,0.00,,CLR,0.00,VWS V14.01,2013-02-09 22:37:00,
2013-02-09 17:42:00,49.1,8.6,29.99,South,185,0.0,0.0,19,0.00,,CLR,0.00,VWS V14.01,2013-02-09 22:42:00,
2013-02-09 17:47:00,47.8,7.6,29.99,South,185,0.0,0.0,19,0.00,,CLR,0.00,VWS V14.01,2013-02-09 22:47:00,
2013-02-09 17:52:00,47.1,7.0,29.99,ESE,103,0.0,0.0,19,0.00,,CLR,0.00,VWS V14.01,2013-02-09 22:52:00,
2013-02-09 17:57:00,45.9,7.1,29.99,ESE,103,0.0,0.0,20,0.00,,CLR,0.00,VWS V14.01,2013-02-09 22:57:00,
2013-02-09 18:02:00,44.6,6.0,29.99,ESE,103,0.0,0.0,20,0.00,,CLR,0.00,VWS V14.01,2013-02-09 23:02:00,
2013-02-09 18:08:00,43.7,5.3,29.99,ESE,103,0.0,0.0,20,0.00,,CLR,0.00,VWS V14.01,2013-02-09 23:08:00,
2013-02-09 18:13:00,43.3,5.0,29.99,ESE,103,0.0,0.0,20,0.00,,CLR,0.00,VWS V14.01,2013-02-09 23:13:00,
2013-02-09 18:18:00,43.0,4.7,29.99,ESE,103,0.0,0.0,20,0.00,,CLR,0.00,VWS V14.01,2013-02-09 23:18:00,
2013-02-09 18:23:00,42.8,4.5,30.02,ESE,103,0.0,0.0,20,0.00,,CLR,0.00,VWS V14.01,2013-02-09 23:23:00,
2013-02-09 18:28:00,42.8,4.5,30.02,ESE,103,0.0,0.0,20,0.00,,CLR,0.00,VWS V14.01,2013-02-09 23:28:00,
2013-02-09 18:33:00,42.8,4.5,30.02,ESE,103,0.0,0.0,20,0.00,,CLR,0.00,VWS V14.01,2013-02-09 23:33:00,
2013-02-09 18:38:00,43.0,4.7,30.02,ESE,103,0.0,0.0,20,0.00,,CLR,0.00,VWS V14.01,2013-02-09 23:38:00,
2013-02-09 18:44:00,43.0,4.7,30.02,ESE,103,0.0,0.0,20,0.00,,CLR,0.00,VWS V14.01,2013-02-09 23:44:00,
2013-02-09 18:49:00,43.0,4.7,30.02,ESE,103,0.0,0.0,20,0.00,,CLR,0.00,VWS V14.01,2013-02-09 23:49:00,
2013-02-09 18:54:00,43.0,4.7,30.02,ESE,103,0.0,0.0,20,0.00,,CLR,0.00,VWS V14.01,2013-02-09 23:54:00,
2013-02-09 18:59:00,43.0,4.7,30.02,ESE,103,0.0,0.0,20,0.00,,CLR,0.00,VWS V14.01,2013-02-09 23:59:00,
2013-02-09 19:04:00,43.0,4.7,30.02,ESE,119,0.0,0.0,20,0.00,,CLR,0.00,VWS V14.01,2013-02-10 00:04:00,
2013-02-09 19:09:00,43.0,4.7,30.02,ESE,119,0.0,0.0,20,0.00,,CLR,0.00,VWS V14.01,2013-02-10 00:09:00,
2013-02-09 19:14:00,42.8,4.5,30.02,ESE,119,0.0,0.0,20,0.00,,CLR,0.00,VWS V14.01,2013-02-10 00:14:00,
2013-02-09 19:20:00,43.0,4.7,30.02,ESE,119,0.0,0.0,20,0.00,,CLR,0.00,VWS V14.01,2013-02-10 00:20:00,
2013-02-09 19:25:00,43.0,4.7,30.02,ESE,119,0.0,0.0,20,0.00,,CLR,0.00,VWS V14.01,2013-02-10 00:25:00,
2013-02-09 19:30:00,42.4,5.3,30.02,ESE,119,0.0,0.0,21,0.00,,CLR,0.00,VWS V14.01,2013-02-10 00:30:00,
2013-02-09 19:35:00,42.3,5.1,30.02,ESE,119,0.0,0.0,21,0.00,,CLR,0.00,VWS V14.01,2013-02-10 00:35:00,
2013-02-09 19:40:00,41.7,4.7,30.02,ESE,119,0.0,0.0,21,0.00,,CLR,0.00,VWS V14.01,2013-02-10 00:40:00,
2013-02-09 19:45:00,41.4,4.4,30.02,ESE,119,0.0,0.0,21,0.00,,CLR,0.00,VWS V14.01,2013-02-10 00:45:00,
2013-02-09 19:51:00,41.0,4.1,30.02,ESE,119,0.0,0.0,21,0.00,,CLR,0.00,VWS V14.01,2013-02-10 00:51:00,
2013-02-09 19:56:00,40.6,3.8,30.02,ESE,119,0.0,0.0,21,0.00,,CLR,0.00,VWS V14.01,2013-02-10 00:56:00,
2013-02-09 20:01:00,40.6,3.8,30.02,ESE,119,0.0,0.0,21,0.00,,CLR,0.00,VWS V14.01,2013-02-10 01:01:00,
2013-02-09 20:06:00,40.5,3.6,30.02,ESE,119,0.0,0.0,21,0.00,,CLR,0.00,VWS V14.01,2013-02-10 01:06:00,
2013-02-09 20:11:00,40.3,3.5,30.02,ESE,119,0.0,0.0,21,0.00,,CLR,0.00,VWS V14.01,2013-02-10 01:11:00,
2013-02-09 20:16:00,40.1,3.3,30.02,ESE,119,0.0,0.0,21,0.00,,CLR,0.00,VWS V14.01,2013-02-10 01:16:00,
2013-02-09 20:22:00,40.3,3.5,30.02,ESE,119,0.0,0.0,21,0.00,,CLR,0.00,VWS V14.01,2013-02-10 01:22:00,
2013-02-09 20:27:00,40.3,3.5,30.02,ESE,119,0.0,0.0,21,0.00,,CLR,0.00,VWS V14.01,2013-02-10 01:27:00,
2013-02-09 20:32:00,40.5,3.6,30.02,ESE,119,0.0,0.0,21,0.00,,CLR,0.00,VWS V14.01,2013-02-10 01:32:00,
2013-02-09 20:37:00,40.5,3.6,30.02,ESE,119,0.0,0.0,21,0.00,,CLR,0.00,VWS V14.01,2013-02-10 01:37:00,
2013-02-09 20:42:00,40.8,3.9,30.02,ESE,119,0.0,0.0,21,0.00,,CLR,0.00,VWS V14.01,2013-02-10 01:42:00,
2013-02-09 20:47:00,41.0,4.1,30.05,ESE,119,0.0,0.0,21,0.00,,CLR,0.00,VWS V14.01,2013-02-10 01:47:00,
2013-02-09 20:52:00,41.0,4.1,30.05,ESE,119,0.0,0.0,21,0.00,,CLR,0.00,VWS V14.01,2013-02-10 01:52:00,
2013-02-09 20:57:00,40.8,3.9,30.05,ESE,119,0.0,0.0,21,0.00,,CLR,0.00,VWS V14.01,2013-02-10 01:57:00,
2013-02-09 21:02:00,40.6,3.8,30.05,ESE,119,0.0,0.0,21,0.00,,CLR,0.00,VWS V14.01,2013-02-10 02:02:00,
2013-02-09 21:07:00,40.6,3.8,30.05,ESE,119,0.0,0.0,21,0.00,,CLR,0.00,VWS V14.01,2013-02-10 02:07:00,
2013-02-09 21:12:00,40.1,3.3,30.05,ESE,119,0.0,0.0,21,0.00,,CLR,0.00,VWS V14.01,2013-02-10 02:12:00,
2013-02-09 21:17:00,39.9,3.2,30.05,ESE,119,0.0,0.0,21,0.00,,CLR,0.00,VWS V14.01,2013-02-10 02:17:00,
2013-02-09 21:22:00,39.7,3.0,30.05,ESE,119,0.0,0.0,21,0.00,,CLR,0.00,VWS V14.01,2013-02-10 02:22:00,
2013-02-09 21:27:00,39.7,3.0,30.05,ESE,119,0.0,0.0,21,0.00,,CLR,0.00,VWS V14.01,2013-02-10 02:27:00,
2013-02-09 21:32:00,39.7,3.0,30.05,ESE,119,0.0,0.0,21,0.00,,CLR,0.00,VWS V14.01,2013-02-10 02:32:00,
2013-02-09 21:37:00,39.7,3.0,30.05,ESE,119,0.0,0.0,21,0.00,,CLR,0.00,VWS V14.01,2013-02-10 02:37:00,
2013-02-09 21:43:00,39.9,3.2,30.05,ESE,119,0.0,0.0,21,0.00,,CLR,0.00,VWS V14.01,2013-02-10 02:43:00,
2013-02-09 21:48:00,39.9,3.2,30.05,ESE,119,0.0,0.0,21,0.00,,CLR,0.00,VWS V14.01,2013-02-10 02:48:00,
2013-02-09 21:53:00,40.3,3.5,30.05,ESE,119,0.0,0.0,21,0.00,,CLR,0.00,VWS V14.01,2013-02-10 02:53:00,
2013-02-09 21:58:00,40.3,3.5,30.05,ESE,119,0.0,0.0,21,0.00,,CLR,0.00,VWS V14.01,2013-02-10 02:58:00,
2013-02-09 22:03:00,40.3,3.5,30.05,East,79,0.0,0.0,21,0.00,,CLR,0.00,VWS V14.01,2013-02-10 03:03:00,
2013-02-09 22:08:00,41.2,4.2,30.05,East,79,0.0,0.0,21,0.00,,CLR,0.00,VWS V14.01,2013-02-10 03:08:00,
2013-02-09 22:13:00,41.0,4.1,30.05,East,79,0.0,0.0,21,0.00,,CLR,0.00,VWS V14.01,2013-02-10 03:13:00,
2013-02-09 22:18:00,41.0,4.1,30.05,East,79,0.0,0.0,21,0.00,,CLR,0.00,VWS V14.01,2013-02-10 03:18:00,
2013-02-09 22:23:00,41.0,4.1,30.05,East,79,0.0,0.0,21,0.00,,CLR,0.00,VWS V14.01,2013-02-10 03:23:00,
2013-02-09 22:28:00,40.5,3.6,30.05,ESE,111,0.0,0.0,21,0.00,,CLR,0.00,VWS V14.01,2013-02-10 03:28:00,
2013-02-09 22:33:00,40.5,3.6,30.05,ESE,112,0.0,0.0,21,0.00,,CLR,0.00,VWS V14.01,2013-02-10 03:33:00,
2013-02-09 22:38:00,40.1,3.3,30.05,ESE,112,0.0,0.0,21,0.00,,CLR,0.00,VWS V14.01,2013-02-10 03:38:00,
2013-02-09 22:43:00,39.9,3.2,30.05,ESE,112,0.0,0.0,21,0.00,,CLR,0.00,VWS V14.01,2013-02-10 03:43:00,
2013-02-09 22:48:00,39.9,3.2,30.05,ESE,112,0.0,0.0,21,0.00,,CLR,0.00,VWS V14.01,2013-02-10 03:48:00,
2013-02-09 22:53:00,39.2,2.6,30.05,ESE,112,0.0,0.0,21,0.00,,CLR,0.00,VWS V14.01,2013-02-10 03:53:00,
2013-02-09 22:58:00,38.7,2.1,30.05,ESE,112,0.0,0.0,21,0.00,,CLR,0.00,VWS V14.01,2013-02-10 03:58:00,
2013-02-09 23:04:00,39.0,2.4,30.02,ESE,112,0.0,0.0,21,0.00,,CLR,0.00,VWS V14.01,2013-02-10 04:04:00,
2013-02-09 23:09:00,39.2,2.6,30.02,ESE,112,0.0,0.0,21,0.00,,CLR,0.00,VWS V14.01,2013-02-10 04:09:00,
2013-02-09 23:14:00,39.4,2.7,30.02,ESE,112,0.0,0.0,21,0.00,,CLR,0.00,VWS V14.01,2013-02-10 04:14:00,
2013-02-09 23:19:00,39.4,2.7,30.05,ESE,112,0.0,0.0,21,0.00,,CLR,0.00,VWS V14.01,2013-02-10 04:19:00,
2013-02-09 23:24:00,39.4,2.7,30.05,ESE,112,0.0,0.0,21,0.00,,CLR,0.00,VWS V14.01,2013-02-10 04:24:00,
2013-02-09 23:29:00,39.4,2.7,30.05,ESE,112,0.0,0.0,21,0.00,,CLR,0.00,VWS V14.01,2013-02-10 04:29:00,
2013-02-09 23:34:00,39.0,2.4,30.05,ESE,112,0.0,0.0,21,0.00,,CLR,0.00,VWS V14.01,2013-02-10 04:34:00,
2013-02-09 23:39:00,39.0,2.4,30.05,ESE,112,0.0,0.0,21,0.00,,CLR,0.00,VWS V14.01,2013-02-10 04:39:00,
2013-02-09 23:44:00,38.8,2.3,30.05,ESE,112,0.0,0.0,21,0.00,,CLR,0.00,VWS V14.01,2013-02-10 04:44:00,
2013-02-09 23:49:00,38.8,2.3,30.05,ESE,112,0.0,0.0,21,0.00,,CLR,0.00,VWS V14.01,2013-02-10 04:49:00,
2013-02-09 23:54:00,39.0,2.4,30.05,ESE,112,0.0,0.0,21,0.00,,CLR,0.00,VWS V14.01,2013-02-10 04:54:00,
2013-02-09 23:59:00,39.4,2.7,30.05,ESE,112,0.0,0.0,21,0.00,,CLR,0.00,VWS V14.01,2013-02-10 04:59:00,